This is the latest recevied weather packets stored in our database for station/object N4AR. If no packets are shown the sender has not sent any weather packets the latest 10 day(s).
| Time | Temp. | Humidity | Pressure | Rain* | Wind** | Luminosity | Snow |
|---|---|---|---|---|---|---|---|
| 1777920620 | 25.56° C | 33% | 1013.8 hPa | 0 mm | - | 772 W/m² | - |
| 1777920315 | 26.67° C | 30% | 1013.9 hPa | 0 mm | - | 538 W/m² | - |
| 1777920011 | 26.11° C | 30% | 1013.9 hPa | 0 mm | - | 649 W/m² | - |
| 1777919709 | 26.11° C | 31% | 1014 hPa | 0 mm | - | 779 W/m² | - |
| 1777919407 | 25.56° C | 33% | 1014.2 hPa | 0 mm | - | 715 W/m² | - |
| 1777919103 | 25° C | 34% | 1014.3 hPa | 0 mm | - | 888 W/m² | - |
| 1777918800 | 25.56° C | 32% | 1014.3 hPa | 0 mm | - | 443 W/m² | - |
| 1777918497 | 26.11° C | 33% | 1014.3 hPa | 0 mm | - | 532 W/m² | - |
| 1777918196 | 26.11° C | 30% | 1014.2 hPa | 0 mm | - | 532 W/m² | - |
| 1777917895 | 26.11° C | 31% | 1014.7 hPa | 0 mm | - | 908 W/m² | - |
| 1777917593 | 26.11° C | 31% | 1014.4 hPa | 0 mm | - | 833 W/m² | - |
| 1777917289 | 25.56° C | 33% | 1014.6 hPa | 0 mm | - | 566 W/m² | - |
| 1777916987 | 25.56° C | 31% | 1014.5 hPa | 0 mm | - | 877 W/m² | - |
| 1777916685 | 26.11° C | 31% | 1014.5 hPa | 0 mm | - | 516 W/m² | - |
| 1777916382 | 26.67° C | 33% | 1014.5 hPa | 0 mm | - | 689 W/m² | - |
| 1777916077 | 27.22° C | 31% | 1014.5 hPa | 0 mm | - | 663 W/m² | - |
| 1777915776 | 26.11° C | 34% | 1014.5 hPa | 0 mm | - | 830 W/m² | - |
| 1777915471 | 25.56° C | 33% | 1014.4 hPa | 0 mm | - | 792 W/m² | - |
| 1777915168 | 26.11° C | 33% | 1014.8 hPa | 0 mm | - | 231 W/m² | - |
| 1777914865 | 26.67° C | 30% | 1014.7 hPa | 0 mm | - | 269 W/m² | - |
| 1777914562 | 26.11° C | 32% | 1014.7 hPa | 0 mm | - | 759 W/m² | - |
| 1777914258 | 25.56° C | 31% | 1014.8 hPa | 0 mm | - | 921 W/m² | - |
| 1777913955 | 25.56° C | 32% | 1014.9 hPa | 0 mm | - | 209 W/m² | - |
| 1777913652 | 26.11° C | 34% | 1014.9 hPa | 0 mm | - | 901 W/m² | - |
| 1777913348 | 25.56° C | 32% | 1014.9 hPa | 0 mm | - | 302 W/m² | - |
* Rain latest hour (hover to see other rain measurements)
** Current wind speed in m/s (hover to see current wind gust speed)